Torna al catalogo

COSMOS 2581

AttivoMilitarePO
NORAD 62902·PAYLOAD·🇷🇺 Russia

Lanciato Feb 5, 2025 da Plesetsk Cosmodrome

Loading…

Prossimi Passaggi (prossime 24 ore)

TLE

AggiornatoSource: Space-Track

Epoca: Sep 14, 2026, 18:28 UTC

1 62902U 25026A   26257.76997721  .00000988  00000-0  87687-4 0  9999
2 62902  81.9989 343.0768 0011376 116.8069 243.4315 14.95171138 87608

Traccia COSMOS 2581 in tempo reale con AllMySat

Download on the App Store